Regional Weather Roundup
Issued by NWS State College, PA

Home | Current Version | Previous Version | Text Only | Print | Product List | Glossary Off
Versions: 1 2 3 4 5 6 7 8 9 10 11 12 13 14 15 16 17 18 19 20 21 22 23 24 25 26 27 28 29 30 31 32 33 34 35 36 37 38 39 40 41 42 43 44 45 46 47 48 49 50

000
ASUS41 KCTP 250610
RWRCTP

REGIONAL WEATHER ROUNDUP
NATIONAL WEATHER SERVICE STATE COLLEGE PA
200 AM EDT MON MAY 25 2015

Note: "fair" indicates few or no clouds below 12,000 feet with no
significant weather and/or obstructions to visibility.

* = STATION THAT DOES NOT REPORT PRECIPITATION /E.G. RAIN...SNOW...ETC/
    THUNDER OR FOG.

PAZ002>004-007>009-013>016-020>023-029>032-250700-
WESTERN PENNSYLVANIA

CITY           SKY/WX    TMP DP  RH WIND       PRES   REMARKS
ERIE           MOCLDY    69  44  40 S12       30.13F
MEADVILLE      PTCLDY    66  41  40 CALM      30.18F
FRANKLIN*      CLOUDY    63  43  48 S8        30.21S
NEW CASTLE     FAIR      56  51  83 CALM      30.19F
BEAVER COUNTY  NOT AVBL
BUTLER*        CLEAR     64  45  48 S5        30.20F
PITTSBURGH INT PTCLDY    62  50  64 CALM      30.18F
PITTSBURGH     PTCLDY    63  46  54 SE7       30.19F
INDIANA*       CLEAR     57  50  77 CALM      30.24F
LATROBE        PTCLDY    59  50  72 CALM      30.22F
WASHINGTON CO* PTCLDY    54  50  87 CALM      30.21F
$$

PAZ004>006-010>012-017>019-024>028-033>037-041-042-045-046-049>053-250700-
CENTRAL PENNSYLVANIA

CITY           SKY/WX    TMP DP  RH WIND       PRES   REMARKS
BRADFORD       CLOUDY    58  48  69 SE3       30.23F
DUBOIS         MOCLDY    66  43  43 VRB5      30.21F
CLEARFIELD     MOCLDY    57  48  72 N5        30.23F
JOHNSTOWN      CLEAR     61  48  62 SW7       30.24F
ALTOONA        CLEAR     60  47  61 CALM      30.24F
STATE COLLEGE  PTCLDY    61  47  59 W5        30.22F
WILLIAMSPORT   MOCLDY    58  51  78 CALM      30.21F
SELINSGROVE    MOCLDY    61  54  77 CALM      30.22F
FT INDIANTOWN  MOCLDY    59  53  79 CALM      30.24F
CAPITAL CITY   PTCLDY    67  57  70 E6        30.23F
HARRISBURG     MOCLDY    67  58  72 SE6       30.22F
YORK           PTCLDY    65  57  75 CALM      30.23F
$$

PAZ038>040-043-044-047-048-054-055-060>062-067>071-250700-
EASTERN PENNSYLVANIA

CITY           SKY/WX    TMP DP  RH WIND       PRES   REMARKS
SCRANTON       CLOUDY    67  43  41 CALM      30.24S
MOUNT POCONO   CLOUDY    62  43  49 W5        30.27F
ALLENTOWN      MOCLDY    63  46  54 CALM      30.25S
QUAKERTOWN*    MOCLDY    57  54  88 CALM      30.27S
READING        MOCLDY    68  56  65 CALM      30.23F
LANCASTER      MOCLDY    62  57  83 CALM      30.24F
COATESVILLE    CLOUDY    64  59  82 CALM      30.27S
POTTSTOWN      MOCLDY    62  55  77 E3        30.27S
BLUE BELL      MOCLDY    61  55  82 CALM      30.26S
DOYLESTOWN     MOCLDY    61  53  75 S3        30.26S
WILLOW GROVE   NOT AVBL
NORTH PHILA    MOCLDY    65  53  65 CALM      30.28S
PHILADELPHIA   MOCLDY    65  56  72 S6        30.27F
$$


USA.gov is the U.S. government's official web portal to all federal, state and local government web resources and services.